| time (UTC) | temp F | wind direction | speed MPH | gust MPH | rain 1hr in | rain 24hr in | rain mn in | humidity % | barometer mb |
| 20260904122210 | 94 | 213 | 7.0 | 15.0 | 0.00 | 0.00 | 0.00 | 39 | 1016.2 |
| 20260904121210 | 93 | 252 | 6.0 | 16.0 | 0.00 | 0.00 | 0.00 | 40 | 1016.3 |
| 20260904120210 | 93 | 273 | 7.0 | 17.0 | 0.00 | 0.00 | 0.00 | 41 | 1016.4 |
| 20260904115210 | 92 | 291 | 8.0 | 19.0 | 0.00 | 0.00 | 0.00 | 40 | 1016.5 |
| 20260904114210 | 92 | 259 | 7.0 | 16.0 | 0.00 | 0.00 | 0.00 | 41 | 1016.6 |
| 20260904113210 | 91 | 250 | 8.0 | 19.0 | 0.00 | 0.00 | 0.00 | 41 | 1016.7 |
| 20260904112210 | 90 | 287 | 12.0 | 17.0 | 0.00 | 0.00 | 0.00 | 41 | 1016.8 |
| 20260904111210 | 90 | 255 | 10.0 | 17.0 | 0.00 | 0.00 | 0.00 | 43 | 1016.9 |
| 20260904110210 | 89 | 234 | 11.0 | 18.0 | 0.00 | 0.00 | 0.00 | 44 | 1017.0 |
| 20260904105210 | 88 | 243 | 10.0 | 18.0 | 0.00 | 0.00 | 0.00 | 44 | 1017.2 |
| 20260904104210 | 87 | 240 | 8.0 | 18.0 | 0.00 | 0.00 | 0.00 | 44 | 1017.4 |
| 20260904103210 | 87 | 279 | 8.0 | 19.0 | 0.00 | 0.00 | 0.00 | 45 | 1017.6 |
| 20260904102210 | 86 | 198 | 11.0 | 18.0 | 0.00 | 0.00 | 0.00 | 45 | 1017.7 |
| 20260904101210 | 85 | 169 | 7.0 | 15.0 | 0.00 | 0.00 | 0.00 | 46 | 1017.9 |
| 20260904100210 | 85 | 186 | 9.0 | 16.0 | 0.00 | 0.00 | 0.00 | 47 | 1017.9 |
| 20260904095210 | 84 | 242 | 8.0 | 17.0 | 0.00 | 0.00 | 0.00 | 47 | 1018.1 |
| 20260904094210 | 83 | 282 | 8.0 | 15.0 | 0.00 | 0.00 | 0.00 | 48 | 1018.3 |
| 20260904093210 | 82 | 183 | 8.0 | 15.0 | 0.00 | 0.00 | 0.00 | 48 | 1018.3 |
| 20260904092210 | 82 | 288 | 7.0 | 16.0 | 0.00 | 0.00 | 0.00 | 48 | 1018.6 |
| 20260904091210 | 81 | 205 | 7.0 | 13.0 | 0.00 | 0.00 | 0.00 | 50 | 1018.6 |
| 20260904090210 | 80 | 321 | 9.0 | 14.0 | 0.00 | 0.00 | 0.00 | 50 | 1018.6 |
| 20260904085210 | 79 | 237 | 7.0 | 15.0 | 0.00 | 0.00 | 0.00 | 52 | 1018.7 |
| 20260904084210 | 78 | 205 | 8.0 | 13.0 | 0.00 | 0.00 | 0.00 | 52 | 1018.7 |
| 20260904083210 | 77 | 165 | 9.0 | 14.0 | 0.00 | 0.00 | 0.00 | 53 | 1018.8 |
| 20260904082210 | 77 | 186 | 7.0 | 14.0 | 0.00 | 0.00 | 0.00 | 54 | 1018.8 |
| 20260904081210 | 76 | 184 | 6.0 | 13.0 | 0.00 | 0.00 | 0.00 | 56 | 1018.9 |
| 20260904080210 | 75 | 194 | 7.0 | 15.0 | 0.00 | 0.00 | 0.00 | 57 | 1019.0 |
| 20260904075210 | 74 | 248 | 7.0 | 13.0 | 0.00 | 0.00 | 0.00 | 60 | 1019.0 |
| 20260904074210 | 73 | 191 | 8.0 | 14.0 | 0.00 | 0.00 | 0.00 | 62 | 1018.8 |
| 20260904073210 | 72 | 205 | 5.0 | 14.0 | 0.00 | 0.00 | 0.00 | 64 | 1018.9 |
| 20260904072210 | 70 | 188 | 6.0 | 11.0 | 0.00 | 0.00 | 0.00 | 69 | 1019.0 |
| 20260904071210 | 69 | 223 | 6.0 | 10.0 | 0.00 | 0.00 | 0.00 | 72 | 1019.1 |
| 20260904070210 | 67 | 229 | 5.0 | 10.0 | 0.00 | 0.00 | 0.00 | 75 | 1019.3 |
| 20260904065210 | 66 | 236 | 4.0 | 8.0 | 0.00 | 0.00 | 0.00 | 79 | 1019.4 |
| 20260904064210 | 65 | 234 | 3.0 | 9.0 | 0.00 | 0.00 | 0.00 | 81 | 1019.4 |
| 20260904063211 | 64 | 247 | 4.0 | 8.0 | 0.00 | 0.00 | 0.00 | 82 | 1019.5 |
| 20260904062210 | 63 | 211 | 5.0 | 8.0 | 0.00 | 0.00 | 0.00 | 83 | 1019.7 |
| 20260904061210 | 62 | 209 | 4.0 | 7.0 | 0.00 | 0.00 | 0.00 | 83 | 1019.7 |
| 20260904060210 | 62 | 232 | 5.0 | 7.0 | 0.00 | 0.00 | 0.00 | 84 | 1019.7 |
| 20260904055210 | 61 | 235 | 4.0 | 9.0 | 0.00 | 0.00 | 0.00 | 83 | 1019.8 |
| 20260904054210 | 61 | 229 | 3.0 | 7.0 | 0.00 | 0.00 | 0.00 | 83 | 1019.8 |
| 20260904053210 | 61 | 209 | 3.0 | 5.0 | 0.00 | 0.00 | 0.00 | 83 | 1019.9 |
| 20260904052210 | 61 | 190 | 1.0 | 4.0 | 0.00 | 0.00 | 0.00 | 83 | 1019.9 |
| 20260904051210 | 61 | 200 | 1.0 | 4.0 | 0.00 | 0.00 | 0.00 | 82 | 1019.8 |
| 20260904050210 | 61 | 196 | 3.0 | 5.0 | 0.00 | 0.00 | 0.00 | 82 | 1019.8 |
| 20260904045210 | 61 | 202 | 3.0 | 5.0 | 0.00 | 0.00 | 0.00 | 82 | 1019.8 |
| 20260904044210 | 61 | 214 | 3.0 | 6.0 | 0.00 | 0.00 | 0.00 | 82 | 1019.9 |
| 20260904043210 | 61 | 237 | 3.0 | 6.0 | 0.00 | 0.00 | 0.00 | 82 | 1019.9 |
| 20260904042210 | 61 | 219 | 4.0 | 8.0 | 0.00 | 0.00 | 0.00 | 82 | 1020.0 |
| 20260904041210 | 61 | 221 | 4.0 | 8.0 | 0.00 | 0.00 | 0.00 | 82 | 1020.0 |
| 20260904040210 | 61 | 217 | 5.0 | 7.0 | 0.00 | 0.00 | 0.00 | 82 | 1020.0 |
| 20260904035210 | 61 | 205 | 3.0 | 7.0 | 0.00 | 0.00 | 0.00 | 81 | 1020.2 |
| 20260904034210 | 61 | 211 | 4.0 | 6.0 | 0.00 | 0.00 | 0.00 | 81 | 1020.3 |
| 20260904033210 | 61 | 186 | 3.0 | 5.0 | 0.00 | 0.00 | 0.00 | 80 | 1020.5 |
| 20260904032210 | 61 | 188 | 3.0 | 5.0 | 0.00 | 0.00 | 0.00 | 80 | 1020.5 |
| 20260904031210 | 62 | 207 | 3.0 | 4.0 | 0.00 | 0.00 | 0.00 | 80 | 1020.6 |
| 20260904030210 | 62 | 198 | 3.0 | 5.0 | 0.00 | 0.00 | 0.00 | 80 | 1020.6 |
| 20260904025210 | 62 | 209 | 1.0 | 5.0 | 0.00 | 0.00 | 0.00 | 79 | 1020.6 |
| 20260904024210 | 62 | 227 | 3.0 | 6.0 | 0.00 | 0.00 | 0.00 | 79 | 1020.6 |
| 20260904023210 | 62 | 215 | 3.0 | 8.0 | 0.00 | 0.00 | 0.00 | 80 | 1020.8 |
| 20260904022210 | 62 | 215 | 4.0 | 7.0 | 0.00 | 0.00 | 0.00 | 80 | 1020.9 |
| 20260904021210 | 62 | 234 | 4.0 | 7.0 | 0.00 | 0.00 | 0.00 | 80 | 1020.9 |
| 20260904020209 | 62 | 205 | 4.0 | 7.0 | 0.00 | 0.00 | 0.00 | 80 | 1020.9 |
| 20260904015210 | 62 | 213 | 3.0 | 6.0 | 0.00 | 0.00 | 0.00 | 80 | 1021.0 |
| 20260904014210 | 62 | 212 | 4.0 | 6.0 | 0.00 | 0.00 | 0.00 | 80 | 1021.0 |
| 20260904013209 | 62 | 241 | 4.0 | 6.0 | 0.00 | 0.00 | 0.00 | 80 | 1021.0 |
| 20260904012209 | 62 | 192 | 2.0 | 5.0 | 0.00 | 0.00 | 0.00 | 80 | 1021.1 |
| 20260904011209 | 62 | 214 | 0.0 | 1.0 | 0.00 | 0.00 | 0.00 | 80 | 1021.1 |
| 20260904010210 | 63 | 168 | 0.0 | 0.0 | 0.00 | 0.00 | 0.00 | 79 | 1021.2 |
| 20260904005210 | 63 | 213 | 0.0 | 0.0 | 0.00 | 0.00 | 0.00 | 78 | 1021.2 |
| 20260904004210 | 63 | 207 | 2.0 | 3.0 | 0.00 | 0.00 | 0.00 | 78 | 1021.3 |
| 20260904003210 | 64 | 188 | 0.0 | 4.0 | 0.00 | 0.00 | 0.00 | 77 | 1021.3 |
| 20260904002210 | 64 | 182 | 0.0 | 3.0 | 0.00 | 0.00 | 0.00 | 75 | 1021.5 |
| 20260904001209 | 65 | 143 | 1.0 | 3.0 | 0.00 | 0.00 | 0.00 | 74 | 1021.6 |
| 20260904000211 | 65 | 229 | 0.0 | 3.0 | 0.00 | 0.00 | 0.00 | 74 | 1021.6 |
| 20260903235210 | 65 | 262 | 1.0 | 3.0 | 0.00 | 0.00 | 0.00 | 73 | 1021.6 |
| 20260903234209 | 66 | 231 | 3.0 | 5.0 | 0.00 | 0.00 | 0.00 | 73 | 1021.5 |
| 20260903233209 | 66 | 230 | 2.0 | 5.0 | 0.00 | 0.00 | 0.00 | 72 | 1021.4 |
| 20260903232210 | 67 | 208 | 3.0 | 5.0 | 0.00 | 0.00 | 0.00 | 71 | 1021.5 |
| 20260903231210 | 67 | 187 | 3.0 | 6.0 | 0.00 | 0.00 | 0.00 | 69 | 1021.6 |
| 20260903230209 | 68 | 229 | 1.0 | 6.0 | 0.00 | 0.00 | 0.00 | 68 | 1021.7 |
| 20260903225209 | 68 | 274 | 2.0 | 7.0 | 0.00 | 0.00 | 0.00 | 67 | 1021.7 |
| 20260903224209 | 69 | 280 | 4.0 | 7.0 | 0.00 | 0.00 | 0.00 | 67 | 1021.8 |
| 20260903223209 | 69 | 269 | 4.0 | 6.0 | 0.00 | 0.00 | 0.00 | 67 | 1021.8 |
| 20260903221209 | 69 | 208 | 4.0 | 7.0 | 0.00 | 0.00 | 0.00 | 65 | 1021.7 |
| 20260903220209 | 69 | 243 | 3.0 | 5.0 | 0.00 | 0.00 | 0.00 | 64 | 1021.7 |
| 20260903215209 | 69 | 273 | 5.0 | 9.0 | 0.00 | 0.00 | 0.00 | 64 | 1021.6 |
| 20260903214209 | 69 | 258 | 5.0 | 8.0 | 0.00 | 0.00 | 0.00 | 64 | 1021.7 |
| 20260903213209 | 70 | 235 | 2.0 | 4.0 | 0.00 | 0.00 | 0.00 | 64 | 1021.8 |
| 20260903212209 | 70 | 258 | 3.0 | 4.0 | 0.00 | 0.00 | 0.00 | 65 | 1021.8 |
| 20260903211209 | 70 | 238 | 2.0 | 5.0 | 0.00 | 0.00 | 0.00 | 65 | 1021.9 |
| 20260903210209 | 70 | 230 | 3.0 | 5.0 | 0.00 | 0.00 | 0.00 | 65 | 1021.8 |
| 20260903205209 | 71 | 225 | 3.0 | 5.0 | 0.00 | 0.00 | 0.00 | 65 | 1021.8 |
| 20260903204210 | 71 | 225 | 3.0 | 5.0 | 0.00 | 0.00 | 0.00 | 65 | 1022.0 |
| 20260903203209 | 71 | 203 | 2.0 | 4.0 | 0.00 | 0.00 | 0.00 | 63 | 1021.9 |
| 20260903202209 | 72 | 203 | 2.0 | 3.0 | 0.00 | 0.00 | 0.00 | 62 | 1021.8 |
| 20260903201209 | 72 | 224 | 3.0 | 4.0 | 0.00 | 0.00 | 0.00 | 61 | 1021.7 |
| 20260903200209 | 73 | 219 | 3.0 | 5.0 | 0.00 | 0.00 | 0.00 | 59 | 1021.8 |
| 20260903195209 | 74 | 221 | 2.0 | 4.0 | 0.00 | 0.00 | 0.00 | 58 | 1021.8 |
| 20260903194209 | 74 | 205 | 2.0 | 5.0 | 0.00 | 0.00 | 0.00 | 56 | 1021.7 |
| 20260903193209 | 74 | 215 | 2.0 | 4.0 | 0.00 | 0.00 | 0.00 | 55 | 1021.8 |
| 20260903192209 | 75 | 265 | 2.0 | 9.0 | 0.00 | 0.00 | 0.00 | 54 | 1021.7 |
| 20260903191209 | 75 | 272 | 4.0 | 9.0 | 0.00 | 0.00 | 0.00 | 54 | 1021.6 |
| 20260903190209 | 76 | 246 | 0.0 | 6.0 | 0.00 | 0.00 | 0.00 | 52 | 1021.5 |
| 20260903185210 | 76 | 267 | 3.0 | 7.0 | 0.00 | 0.00 | 0.00 | 51 | 1021.5 |